Dublin, GA

12:17 PM EDT on May 26, 2017 (GMT -0400)
Dublin

Weather History for KDBN - May, 2014

Change the Weather History Date:

Wednesday, May 14, 2014

  Actual Average Record
Temperature  
Mean Temperature 76 °F -  
Max Temperature 89 °F 85 °F 95 °F (1956)
Min Temperature 62 °F 58 °F 44 °F (2013)
Cooling Degree Days 10    
Growing Degree Days 26 (Base 50)    
Moisture  
Dew Point 69 °F    
Average Humidity 85    
Maximum Humidity 100    
Minimum Humidity 49    
Precipitation  
Precipitation 0.00 in - - ()
Sea Level Pressure  
Sea Level Pressure 30.08 in    
Wind  
Wind Speed 4 mph (SE)    
Max Wind Speed 20 mph    
Max Gust Speed 29 mph    
Visibility 8 miles    
Events Fog , Rain , Thunderstorm    
Averages and records for this station are not official NWS values.
T = Trace of Precipitation, MM = Missing Value Source: NWS Daily Summary

Daily Weather History Graph

Daily Weather History Graph

Search for Another Location

Airport or City:

Trip Planner

Search our weather history database for the weather conditions in past years. The results will help you decide how hot, cold, wet, or windy it might be!

Date:

Astronomy

May. 14, 2014 Rise Set
Actual Time 6:32 AM EDT 8:24 PM EDT
Civil Twilight 6:04 AM EDT 8:52 PM EDT
Nautical Twilight 5:31 AM EDT 9:25 PM EDT
Astronomical Twilight 4:56 AM EDT 10:00 PM EDT
Moon 8:30 PM EDT (5/14) 6:27 AM EDT (5/14)
Length of Visible Light 14h 47m
Length of Day
13h 52m
Full, 100% of the Moon is Illuminated
May 14
Full
May 14
Full
May 21
Last Quarter
May 28
New
Jun 5
First Quarter

Hourly Weather History & Observations

Time (EDT) Temp. Heat Index Dew Point Humidity Pressure Visibility Wind Dir Wind Speed Gust Speed Precip Events Conditions
12:15 AM 71.6 °F - 66.2 °F 83% 30.17 in 10.0 mi SSE 5.8 mph - N/A   Clear
12:35 AM 71.6 °F - 66.2 °F 83% 30.16 in 10.0 mi SSE 4.6 mph - N/A   Clear
12:55 AM 71.6 °F - 66.2 °F 83% 30.17 in 10.0 mi SSE 3.5 mph - N/A   Clear
1:15 AM 69.8 °F - 66.2 °F 88% 30.16 in 10.0 mi Calm Calm - N/A   Clear
1:35 AM 69.8 °F - 66.2 °F 88% 30.16 in 10.0 mi Calm Calm - N/A   Clear
2:15 AM 69.8 °F - 68.0 °F 94% 30.13 in 10.0 mi SE 4.6 mph - N/A   Clear
2:35 AM 69.8 °F - 68.0 °F 94% 30.14 in 10.0 mi SSW 3.5 mph - N/A   Clear
2:55 AM 68.0 °F - 66.2 °F 94% 30.13 in 10.0 mi Calm Calm - N/A   Clear
3:15 AM 68.0 °F - 66.2 °F 94% 30.13 in 10.0 mi Calm Calm - N/A   Clear
3:35 AM 68.0 °F - 66.2 °F 94% 30.13 in 7.0 mi Calm Calm - N/A   Clear
3:55 AM 66.2 °F - 64.4 °F 94% 30.13 in 3.0 mi Calm Calm - N/A   Clear
4:15 AM 66.2 °F - 64.4 °F 94% 30.14 in 7.0 mi Calm Calm - N/A   Clear
4:35 AM 64.4 °F - 64.4 °F 100% 30.14 in 1.8 mi Calm Calm - N/A   Mist
4:55 AM 64.4 °F - 64.4 °F 100% 30.14 in 2.5 mi Calm Calm - N/A   Clear
5:15 AM 64.4 °F - 64.4 °F 100% 30.14 in 5.0 mi Calm Calm - N/A   Clear
5:35 AM 64.4 °F - 62.6 °F 94% 30.14 in 1.5 mi Calm Calm - N/A   Mist
5:55 AM 62.6 °F - 62.6 °F 100% 30.14 in 0.2 mi Calm Calm - N/A Fog Fog
6:15 AM 64.4 °F - 64.4 °F 100% 30.14 in 5.0 mi Calm Calm - N/A   Overcast
6:35 AM 64.4 °F - 64.4 °F 100% 30.13 in 5.0 mi Calm Calm - N/A   Overcast
7:15 AM 68.0 °F - 68.0 °F 100% 30.13 in 0.2 mi East 3.5 mph - N/A Fog Fog
7:35 AM 68.0 °F - 68.0 °F 100% 30.13 in 0.2 mi Calm Calm - N/A Fog Fog
7:55 AM 68.0 °F - 68.0 °F 100% 30.14 in 0.2 mi Calm Calm - N/A Fog Fog
8:15 AM 68.0 °F - 68.0 °F 100% 30.15 in 0.2 mi South 3.5 mph - N/A Fog Fog
8:35 AM 69.8 °F - 69.8 °F 100% 30.15 in 0.8 mi SSE 3.5 mph - N/A   Overcast
8:55 AM 69.8 °F - 69.8 °F 100% 30.15 in 4.0 mi SE 3.5 mph - N/A   Overcast
9:15 AM 71.6 °F - 69.8 °F 94% 30.15 in 7.0 mi SSE 5.8 mph - N/A   Overcast
9:35 AM 73.4 °F - 69.8 °F 88% 30.15 in 10.0 mi SSE 6.9 mph - N/A   Overcast
9:55 AM 73.4 °F - 69.8 °F 88% 30.15 in 10.0 mi South 5.8 mph - N/A   Overcast
10:15 AM 77.0 °F - 69.8 °F 78% 30.15 in 10.0 mi SSE 8.1 mph - N/A   Overcast
10:35 AM 78.8 °F - 69.8 °F 74% 30.15 in 10.0 mi SE 6.9 mph - N/A   Mostly Cloudy
10:55 AM 77.0 °F - 69.8 °F 78% 30.15 in 10.0 mi South 6.9 mph - N/A   Mostly Cloudy
11:35 AM 78.8 °F - 69.8 °F 74% 30.14 in 10.0 mi SE 9.2 mph - N/A   Mostly Cloudy
11:55 AM 82.4 °F 86.3 °F 69.8 °F 66% 30.13 in 10.0 mi SSE 6.9 mph - N/A   Mostly Cloudy
12:15 PM 80.6 °F 83.9 °F 69.8 °F 70% 30.13 in 10.0 mi SSE 8.1 mph - N/A   Mostly Cloudy
12:55 PM 86.0 °F 89.4 °F 68.0 °F 55% 30.11 in 10.0 mi SW 5.8 mph 10.4 mph N/A   Scattered Clouds
1:15 PM 82.4 °F 85.4 °F 68.0 °F 62% 30.10 in 10.0 mi SSE 8.1 mph - N/A   Mostly Cloudy
1:35 PM 84.2 °F 86.6 °F 66.2 °F 55% 30.09 in 10.0 mi SSE 6.9 mph - N/A   Mostly Cloudy
1:55 PM 86.0 °F 89.4 °F 68.0 °F 55% 30.07 in 10.0 mi ESE 8.1 mph - N/A   Mostly Cloudy
2:15 PM 86.0 °F 89.4 °F 68.0 °F 55% 30.06 in 10.0 mi SE 8.1 mph - N/A   Mostly Cloudy
2:35 PM 86.0 °F 89.4 °F 68.0 °F 55% 30.05 in 10.0 mi SSE 6.9 mph - N/A   Scattered Clouds
2:55 PM 87.8 °F 91.4 °F 68.0 °F 52% 30.03 in 10.0 mi ESE 9.2 mph - N/A   Scattered Clouds
3:15 PM 86.0 °F 88.2 °F 66.2 °F 51% 30.02 in 10.0 mi ESE 10.4 mph - N/A   Scattered Clouds
3:35 PM 89.6 °F 93.4 °F 68.0 °F 49% 30.01 in 10.0 mi SSE 11.5 mph - N/A   Scattered Clouds
4:15 PM 87.8 °F 91.4 °F 68.0 °F 52% 29.99 in 10.0 mi SE 11.5 mph 18.4 mph N/A   Mostly Cloudy
4:35 PM 87.8 °F 91.4 °F 68.0 °F 52% 29.98 in 10.0 mi SE 13.8 mph 17.3 mph N/A Thunderstorm Scattered Clouds
4:55 PM 86.0 °F 89.4 °F 68.0 °F 55% 29.97 in 10.0 mi East 11.5 mph 19.6 mph N/A   Scattered Clouds
5:15 PM 84.2 °F 87.3 °F 68.0 °F 58% 29.99 in 10.0 mi SSE 19.6 mph 28.8 mph N/A Thunderstorm Mostly Cloudy
5:35 PM 69.8 °F - 68.0 °F 94% 29.99 in 3.0 mi East 6.9 mph 11.5 mph N/A Rain , Thunderstorm Light Thunderstorms and Rain
5:55 PM 71.6 °F - 69.8 °F 94% 29.99 in 10.0 mi ENE 5.8 mph - N/A Rain Light Rain
6:15 PM 73.4 °F - 69.8 °F 88% 30.00 in 10.0 mi SSE 4.6 mph - N/A Thunderstorm Scattered Clouds
6:35 PM 73.4 °F - 71.6 °F 94% 30.02 in 10.0 mi SW 4.6 mph - N/A   Mostly Cloudy
6:55 PM 73.4 °F - 71.6 °F 94% 30.02 in 10.0 mi East 4.6 mph - N/A Rain Rain
7:15 PM 73.4 °F - 71.6 °F 94% 30.02 in 10.0 mi SE 6.9 mph - N/A Rain Rain
7:35 PM 73.4 °F - 71.6 °F 94% 30.03 in 7.0 mi SSE 4.6 mph - N/A Rain Light Rain
7:55 PM 73.4 °F - 71.6 °F 94% 29.99 in 7.0 mi East 8.1 mph - N/A Rain Rain
8:15 PM 73.4 °F - 71.6 °F 94% 30.03 in 10.0 mi South 5.8 mph - N/A Rain Light Rain
8:35 PM 73.4 °F - 71.6 °F 94% 30.03 in 10.0 mi South 5.8 mph - N/A   Overcast
8:55 PM 73.4 °F - 71.6 °F 94% 30.02 in 10.0 mi SE 4.6 mph - N/A   Overcast
9:15 PM 73.4 °F - 73.4 °F 100% 30.03 in 10.0 mi SE 4.6 mph - N/A   Overcast
9:35 PM 73.4 °F - 73.4 °F 100% 30.02 in 10.0 mi ESE 6.9 mph - N/A   Overcast
9:55 PM 73.4 °F - 71.6 °F 94% 30.02 in 7.0 mi ESE 4.6 mph - N/A Rain Light Rain
10:15 PM 73.4 °F - 73.4 °F 100% 30.01 in 7.0 mi ESE 5.8 mph - N/A   Overcast
10:35 PM 73.4 °F - 71.6 °F 94% 30.01 in 10.0 mi ESE 4.6 mph - N/A   Overcast
10:55 PM 73.4 °F - 73.4 °F 100% 30.01 in 10.0 mi SE 5.8 mph - N/A Thunderstorm Overcast
11:15 PM 73.4 °F - 71.6 °F 94% 30.02 in 10.0 mi SE 8.1 mph - N/A Rain , Thunderstorm Light Thunderstorms and Rain
11:35 PM 73.4 °F - 71.6 °F 94% 30.02 in 0.8 mi SSE 8.1 mph - N/A Rain Rain
11:55 PM 73.4 °F - 71.6 °F 94% 30.01 in 10.0 mi SSE 8.1 mph - N/A Rain , Thunderstorm Light Thunderstorms and Rain